#timestamp,LO_Frequency,Hit,StdDev 
1657368015.2,286047002.1,N
1657368035.1,286047004.3,Y
1657368036.0,286047004.3,P
1657368055.8,286047001.2,N
1657368075.7,286047000.8,N
1657368095.5,286047001.1,N
1657368115.3,286046998.3,N
1657368135.2,286046998.2,N
1657368155.9,286046998.4,N
1657368175.7,286046999.3,N
1657368195.6,286046999.4,N
1657368215.4,286046999.6,N
1657368235.2,286046998.7,N
1657368255.1,286046996.9,N
1657368256.0,286046996.9,N
1657368275.8,286046997.3,N
1657368295.7,286046997.6,N
1657368315.5,286046995.7,N
1657368335.3,286046997.7,N
1657368355.2,286046994.9,N
1657368375.0,286046997.3,N
1657368375.9,286046997.3,N
1657368395.7,286046997.3,N
1657368415.6,286046997.7,N
1657368435.4,286046996.6,N
1657368455.3,286046999.3,N
1657368475.1,286046999.4,N
1657368476.0,286046999.4,N
1657368495.8,286046997.1,N
1657368515.7,286046999.6,N
1657368535.5,286046998.8,N
1657368555.3,286046999.0,N
1657368575.2,286046998.3,N
1657368595.0,286046998.3,N
1657368595.9,286046998.3,N
1657368615.8,286046998.9,N
1657368635.6,286046999.4,N
1657368655.4,286046999.0,N
1657368675.3,286046996.5,N
1657368695.1,286046997.0,N
1657368715.8,286046997.1,N
1657368735.7,286046995.8,Y
1657368755.5,286046996.6,P
1657368775.4,286046996.9,P
1657368795.2,286046997.6,P
1657368815.0,286046997.8,Y
1657368815.9,286046997.8,P
1657368835.8,286047001.1,P
1657368855.6,286046998.5,N
1657368875.5,286047001.1,N
1657368895.3,286046998.6,N
1657368915.1,286047001.0,N
1657368935.9,286047000.0,N
1657368955.7,286047000.5,N
1657368975.5,286047001.1,N
1657368995.4,286047000.7,N
1657369015.2,286046998.1,N
1657369035.0,286047000.7,N
1657369035.9,286047000.7,N
1657369055.8,286047000.7,N
1657369075.6,286047000.4,N
1657369095.5,286047001.2,N
1657369115.3,286047000.8,N
1657369135.1,286046998.1,N
1657369155.9,286046999.0,N
1657369175.7,286046998.8,N
1657369195.5,286046998.8,N
1657369215.4,286046998.7,N
1657369235.2,286046999.2,N
1657369255.1,286046999.1,N
1657369256.0,286046999.1,N
1657369275.8,286046999.1,N
1657369295.6,286046999.0,N
1657369315.5,286046999.5,N
1657369335.3,286046996.6,N
1657369355.1,286046996.9,N
1657369375.9,286046999.5,N
1657369395.7,286046996.8,N
1657369415.6,286046997.1,N
1657369435.4,286046996.8,N
1657369455.2,286046996.8,N
1657369475.1,286046996.9,N
1657369476.0,286046996.9,N
1657369495.8,286046997.0,N
1657369515.6,286046997.1,N
1657369535.5,286046996.6,N
1657369555.3,286046997.0,N
1657369575.1,286046998.9,N
1657369595.9,286046996.6,N
1657369615.7,286046997.2,N
1657369635.6,286046996.7,N
1657369655.4,286046997.4,N
1657369675.2,286046997.0,N
1657369695.1,286046996.8,Y
1657369696.0,286046996.8,P
1657369715.8,286047000.6,N
1657369735.7,286046998.6,N
1657369755.5,286046998.6,N
1657369805.3,286046998.6,E
1657369815.3,286046998.2,N
1657369835.1,286047000.4,P
1657369836.0,286047000.4,N
1657369855.8,286046999.7,N
1657369875.7,286047000.1,N
1657369895.5,286046999.9,N
1657369915.3,286046999.8,N
1657369935.2,286046999.8,N
1657369955.0,286047002.6,Y
1657369955.9,286047002.6,P
1657369975.8,286047002.5,N
1657369995.6,286047000.2,N
1657370015.4,286047002.4,N
1657370035.3,286046999.8,N
1657370055.1,286047002.8,N
1657370075.8,286046999.9,N
1657370095.7,286047000.0,N
1657370115.5,286046999.7,N
1657370135.4,286047000.0,N
1657370155.2,286047000.4,N
1657370175.0,286046999.7,N
1657370175.9,286046999.7,N
1657370195.8,286046999.8,N
1657370215.6,286047000.4,N
1657370235.4,286047000.7,N
1657370255.3,286047001.0,N
1657370275.1,286046998.2,N
1657370295.8,286046998.8,N
1657370315.7,286046999.0,N
1657370335.5,286046998.9,N
1657370355.4,286047001.2,N
1657370375.2,286046998.3,N
1657370395.0,286047001.2,N
1657370395.9,286047001.2,N
1657370415.8,286047001.2,N
1657370435.6,286047001.1,N
1657370455.4,286046998.2,N
1657370475.3,286046999.0,N
1657370495.1,286046998.8,N
1657370515.9,286046998.7,N
1657370535.7,286046998.3,N
1657370555.5,286047000.3,N
1657370575.4,286046999.7,N
1657370595.2,286046999.8,N
1657370615.0,286047002.2,N
1657370615.9,286047002.2,N
1657370635.8,286046999.8,N
1657370655.6,286047002.8,N
1657370675.5,286047002.4,N
1657370695.3,286047002.7,N
1657370715.1,286046999.8,N
1657370735.9,286047000.2,N
1657370755.7,286047000.3,N
1657370775.5,286047000.7,N
1657370795.4,286047000.4,N
1657370815.2,286047001.0,N
1657370835.0,286046998.1,N
1657370836.0,286046998.1,N
1657370855.8,286047000.5,N
1657370875.6,286047000.3,N
1657370895.5,286047000.7,N
1657370915.3,286047001.2,N
1657370935.1,286047000.7,N
1657370955.9,286047001.2,N
1657370975.7,286046999.1,N
1657370995.5,286046999.4,N
1657371015.4,286046999.4,N
1657371035.2,286046998.4,N
1657371055.1,286047001.2,N
1657371056.0,286047001.2,N
1657371075.8,286047000.8,N
1657371095.6,286046998.1,N
1657371115.5,286047001.0,N
1657371135.3,286047001.0,N
1657371155.1,286047000.8,N
1657371175.9,286046998.1,N
1657371195.7,286046998.1,N
1657371215.6,286047000.8,N
1657371235.4,286046998.5,N
1657371255.2,286046998.4,N
1657371275.1,286047001.1,N
1657371276.0,286047001.1,N
1657371295.8,286046998.1,N
1657371315.6,286047000.8,N
1657371335.5,286047000.8,N
1657371355.3,286047000.7,N
1657371375.2,286047001.0,N
1657371395.9,286047000.8,N
1657371415.7,286046998.2,N
1657371435.6,286047000.8,N
1657371455.4,286047001.0,N
1657371475.2,286047000.9,N
1657371495.1,286047000.5,N
1657371496.0,286047000.5,N
1657371515.8,286047001.2,N
1657371565.7,286047001.0,E
1657371575.6,286047001.0,N
1657371595.4,286046999.0,P
